Location: Kaarina
(60.4167°N, 22.4167°E)
Time: 03:00:51
(UTC+03:00)

GENESIS II - Pass Details

Date: 24 August 2019
Orbit: 479 x 550 km, 64.5° (Epoch: 23 October)

Event Time Altitude Azimuth Distance (km) Brightness Sun altitude
Rises 22:43:49 0° 238° (WSW) 2,677 8.0 -11.1°
Reaches altitude 10° 22:46:00 10° 239° (WSW) 1,798 7.1 -11.3°
Maximum altitude 22:50:03 89° 333° (NNW) 553 4.3 -11.6°
Drops below altitude 10° 22:54:11 10° 60° (ENE) 1,833 6.9 -12.0°
Sets 22:56:25 0° 61° (ENE) 2,733 7.8 -12.2°
